Regional Weather Roundup
Issued by NWS Little Rock, AR

Home | Current Version | Previous Version | Graphics & Text | Print | Product List | Glossary On
Versions: 1 2 3 4 5 6 7 8 9 10 11 12 13 14 15 16 17 18 19 20 21 22 23 24 25 26 27 28 29 30 31 32 33 34 35 36 37 38 39 40 41 42 43 44 45 46 47 48 49 50
000
ASUS44 KLZK 130405
RWRLZK

WEATHER ROUNDUP FOR ARKANSAS
NATIONAL WEATHER SERVICE LITTLE ROCK AR
1000 PM CST FRI FEB 12 2016

NOTE: "FAIR" INDICATES FEW OR NO CLOUDS BELOW 12,000 FEET WITH NO
SIGNIFICANT WEATHER AND/OR OBSTRUCTIONS TO VISIBILITY.

ARZ001-003-010-029-130500-
NORTHWEST ARKANSAS

CITY           SKY/WX    TMP DP  RH WIND       PRES   REMARKS
FAYETTEVILLE   CLOUDY    37  26  64 VRB5      30.44R
FORT SMITH     CLEAR     46  24  42 N10       30.43R
HARRISON       CLEAR     34  22  61 N7        30.45R WCI  28
BENTONVILLE    CLOUDY    36  21  55 N13       30.47R
ROGERS         CLOUDY    35  23  61 N10G17    30.47R WCI  27
SILOAM SPGS    CLOUDY    37  19  48 NE9       30.46R
HIGHFILL       CLOUDY    37  25  61 N12       30.45R
$$

ARZ004-005-016-130500-
NORTH CENTRAL ARKANSAS

CITY           SKY/WX    TMP DP  RH WIND       PRES   REMARKS
BATESVILLE     CLEAR     39  19  45 N6        30.45R
FLIPPIN        CLEAR     37  18  44 N8        30.45R
MTN HOME       CLEAR     34  19  54 N5        30.45R WCI  30
$$

ARZ040-041-130500-
WEST CENTRAL ARKANSAS

CITY           SKY/WX    TMP DP  RH WIND       PRES   REMARKS
MENA           CLOUDY    52  30  43 N5        30.39R
MOUNT IDA      CLEAR     47  30  51 CALM      30.37R
$$

ARZ009-017-025-026-028-130500-
NORTHEAST ARKANSAS

CITY           SKY/WX    TMP DP  RH WIND       PRES   REMARKS
JONESBORO      CLEAR     39  22  50 N8        30.43R
NEWPORT        CLEAR     38  24  57 N10       30.45R
WALNUT RIDGE   CLEAR     36  19  51 NE12      30.45R
BLYTHEVILLE    CLEAR     33  24  69 N10       30.45R WCI  25
$$

ARZ022-023-033-042-044-130500-
CENTRAL ARKANSAS

CITY           SKY/WX    TMP DP  RH WIND       PRES   REMARKS
LITTLE ROCK    PTCLDY    47  25  42 N8        30.41R
N LITTLE ROCK  PTCLDY    47  28  47 N13G18    30.41R
JACKSONVILLE   CLEAR     47  25  42 VRB6      30.40R
SEARCY         CLEAR     43  27  52 N9        30.44R
HOT SPRINGS    CLEAR     48  28  46 CALM      30.40R
RUSSELLVILLE   PTCLDY    47  24  40 N13       30.41R
CLINTON        FAIR      41  25  52 CALM      30.45R
$$

ARZ036-130500-
EAST ARKANSAS

CITY           SKY/WX    TMP DP  RH WIND       PRES   REMARKS
WEST MEMPHIS   CLEAR     38  28  67 N8        30.40R
$$

ARZ050-053-066-070-073-130500-
SOUTHWEST ARKANSAS

CITY           SKY/WX    TMP DP  RH WIND       PRES   REMARKS
ARKADELPHIA    FAIR      51  34  52 NE7       30.40R
CAMDEN         CLEAR     41  32  70 NE7       30.37R
TEXARKANA      CLEAR     51  33  50 NE5       30.36R
EL DORADO      CLEAR     45  35  68 NE3       30.35R
DE QUEEN       CLEAR     43  34  70 NE6       30.36R
$$

ARZ056-057-069-130500-
SOUTHEAST ARKANSAS

CITY           SKY/WX    TMP DP  RH WIND       PRES   REMARKS
PINE BLUFF     CLEAR     44  32  62 NE6       30.39R
STUTTGART      CLEAR     43  28  56 N12       30.40R
MONTICELLO     CLEAR     45  33  63 E3        30.37R

$$





USA.gov is the U.S. government's official web portal to all federal, state and local government web resources and services.